Regional Weather Roundup
Issued by NWS

Home | Current Version | Previous Version | Graphics & Text | Print | Product List | Glossary On
Versions: 1 2 3 4 5 6 7 8 9 10 11 12 13 14 15 16 17 18 19 20 21 22 23 24 25 26 27 28 29 30 31 32 33 34 35 36 37 38 39 40 41 42 43 44 45 46 47 48 49 50
773
ASUS43 KTOP 191708
RWRKS

WEATHER ROUNDUP FOR KANSAS
NATIONAL WEATHER SERVICE GOODLAND KS
1200 PM CDT TUE SEP 19 2017

NOTE:  "FAIR" INDICATES FEW OR NO CLOUDS BELOW 12,000 FEET WITH NO
SIGNIFICANT WEATHER AND/OR OBSTRUCTIONS TO VISIBILITY.

KSZ001>006-013>018-027>032-041>047-191800-
NORTHWEST KANSAS

CITY           SKY/WX    TMP DP  RH WIND       PRES   REMARKS
GOODLAND       CLOUDY    84  39  20 S13G22    29.66F
HAYS           SUNNY     88  63  43 S22G28    29.66F
HILL CITY      SUNNY     85  62  46 S14G22    29.66F
RUSSELL        SUNNY     87  62  43 S24       29.67F
$$

KSZ061>065-074>080-084>089-191800-
SOUTHWEST KANSAS

CITY           SKY/WX    TMP DP  RH WIND       PRES   REMARKS
DODGE CITY     SUNNY     87  58  37 S24G30    29.73F
ELKHART          N/A     86  43  22 S14         N/A
GARDEN CITY    SUNNY     87  52  29 S20       29.71F
GREAT BEND     SUNNY     87  64  46 S17G29    29.71F
LIBERAL        SUNNY     84  56  38 S18       29.76F
PRATT          SUNNY     84  63  49 S24       29.76F
$$

KSZ066>073-081>083-090>101-191800-
SOUTHEAST KANSAS

CITY           SKY/WX    TMP DP  RH WIND       PRES   REMARKS
CHANUTE        SUNNY     84  68  58 S22       29.86F
COFFEYVILLE    LGT RAIN  82  69  64 S16G23    29.85F
HUTCHINSON     SUNNY     87  69  54 S22G30    29.75F
MEDICINE LODGE   N/A     85  66  53 S15G23    29.75F
NEWTON         SUNNY     85  69  58 S21G30    29.78F
WICHITA INTL   MOSUNNY   87  70  56 S20G28    29.77F
WICHITA JABRA  SUNNY     86  70  58 S17G26    29.78F
WICHITA MCCONL SUNNY     87  68  52 S21G26    29.79F
WINFIELD       SUNNY     85  73  67 S18       29.81F
$$

KSZ007>012-019>026-033>040-048>060-102>105-191800-
NORTHEAST KANSAS

CITY           SKY/WX    TMP DP  RH WIND       PRES   REMARKS
CONCORDIA      SUNNY     83  68  60 S24G30    29.70F
EMPORIA        MOSUNNY   84  68  58 S22G32    29.80F
LAWRENCE       MOSUNNY   83  70  64 SE12      29.84F
MANHATTAN      SUNNY     90  68  48 S22G31    29.74F
MARYSVILLE     SUNNY     86  68  54 S12G18    29.74F
OLATHE IND     MOSUNNY   80  69  69 SE13      29.87F
OLATHE EXE     MOSUNNY   79  70  74 S13       29.87F
SALINA         SUNNY     90  67  46 S21G32    29.72F
TOPEKA BILLARD SUNNY     83  70  64 SE14      29.81F
TOPEKA FORBES  SUNNY     84  70  62 SE15      29.82F
$$




USA.gov is the U.S. government's official web portal to all federal, state and local government web resources and services.